[[{"header":{"parameterUnit":"m.s-1","parameterCategory":1,"la1":30.2991,"la2":30.254,"lo1":-89.0895,"lo2":-89.0444,"dy":0.0017,"dx":0.0017,"nx":28,"ny":28,"refTime":"2025-04-13T21:00:00:Z","depth":0,"parameterNumber":2,"parameterNumberName":"U-component_of_WINDS"},"data":[0,0,0,0,0,0,0,0,0,0,0,0,0,0,0,0,0,0,0,0,0,0,0,0,0,0,0,0,0,0,0,0,0,0,0,0,0,0,0,0,0,0,0,0,0,0,0,0,0,0,0,0,0,0,0,0,0,0,3.7761,3.7762,0,3.79,3.7902,3.7903,3.788,3.7877,3.7875,3.7873,3.8013,3.8019,3.8025,0,0,0,0,0,0,0,0,0,0,0,0,0,3.7469,3.7475,3.7761,3.7762,3.7764,3.79,3.7902,3.7904,3.788,3.7877,3.7874,3.7871,3.8011,3.8018,3.8025,0,0,0,0,0,0,0,0,0,0,0,0,0,3.7601,3.7477,3.776,3.7769,3.7771,3.79,3.7902,3.7904,3.7881,3.7877,3.7873,3.787,3.8009,3.8017,3.8026,3.8155,0,0,3.8054,3.8058,0,0,0,0,0,0,0,0,3.7594,3.7612,3.7766,3.7768,3.7771,3.7869,3.7851,3.7988,3.7882,3.7839,3.7873,3.7868,3.7968,3.798,3.8014,3.8161,3.8167,3.8055,3.806,3.8064,3.8066,0,0,0,0,0,0,0,3.7584,3.7606,3.7816,3.7768,3.7771,3.7764,3.7779,3.7877,3.7922,3.7842,3.7841,3.7858,3.7968,3.8005,3.8017,3.8169,3.8054,3.8062,3.8068,3.8071,3.8424,3.8428,0,0,0,0,0,0,3.7573,3.7598,3.7811,3.782,3.7672,3.7772,3.7789,3.7841,3.7921,3.793,3.7861,3.7856,3.7992,3.8007,3.8022,3.8174,3.8064,3.8072,3.8077,3.842,3.8425,3.8429,0,0,0,0,0,0,3.7567,3.7593,3.7806,3.7709,3.7735,3.7781,3.784,3.7846,3.7883,3.7935,3.7943,3.7891,3.799,3.8009,3.8121,3.8179,3.8076,3.8084,3.8415,3.8422,3.8427,3.8481,0,0,0,0,0,0,3.7559,3.7591,3.7641,3.771,3.7741,3.7904,3.7844,3.7851,3.7898,3.7894,3.7965,3.7973,3.7988,3.8108,3.813,3.8189,3.8091,3.841,3.8418,3.8425,3.8474,3.8488,3.85,0,0,0,0,0,3.7549,3.7651,3.7644,3.7669,3.7805,3.7907,3.7925,3.7941,3.7903,3.7953,3.7986,3.7971,3.8169,3.8119,3.8144,3.8207,3.8407,3.8416,3.8425,3.8469,3.8486,3.85,0,0,0,0,0,0,3.7587,3.766,3.7653,3.7781,3.7838,3.7903,3.7967,3.7959,3.8027,3.802,3.8036,3.8052,3.8165,3.8198,3.8141,3.8333,3.8282,3.8297,3.8307,3.8324,3.8337,3.8325,3.8099,0,0,0,0,0,3.7611,3.7689,3.7748,3.7856,3.7885,3.7921,3.7966,3.7974,3.8033,3.8057,3.8098,3.8156,3.823,3.828,3.8352,3.848,3.8493,3.8535,3.8548,3.8558,3.8569,3.8635,3.8654,3.8459,3.8458,3.8458,0,0,3.766,3.7709,3.7758,3.7864,3.791,3.7988,3.7941,3.8028,3.8085,3.807,3.8177,3.8209,3.8274,3.8393,3.8448,3.8424,3.8626,3.857,3.8577,3.8583,3.8647,3.8665,3.8681,3.8465,3.8464,3.8463,0,0,3.7789,3.7836,3.7928,3.7974,3.8043,3.8066,3.8088,3.8155,3.8175,3.8283,3.8272,3.8341,3.8471,3.8516,3.8556,3.87,3.8687,3.8723,3.8789,3.8854,3.8869,3.8882,3.893,3.8947,3.8735,3.8735,3.8735,0,3.7841,3.796,3.7977,3.8063,3.8109,3.8099,3.8191,3.8235,3.8323,3.8354,3.8327,3.8487,3.853,3.8658,3.8693,3.8727,3.875,3.8714,3.8866,3.8879,3.8892,3.8938,3.8956,3.8739,3.8738,3.8738,3.8738,0,3.8018,3.8101,3.8168,3.8253,3.8306,3.8396,3.8424,3.8476,3.8478,3.8504,3.8612,3.8663,3.8744,3.8775,3.8779,3.8903,3.8885,3.8862,3.8811,3.8914,3.8957,3.8975,3.8744,3.8743,3.8742,3.8741,0,0,3.8175,3.8268,3.8291,3.8328,3.8403,3.8466,3.8554,3.8633,3.8675,3.8737,3.8808,3.8917,3.8895,3.894,3.8949,3.9006,3.9111,3.8975,3.8976,3.8995,3.9247,3.9261,3.9282,3.9104,3.9108,3.9111,3.924,0,3.8308,3.8463,3.848,3.8617,3.8692,3.8683,3.8758,3.8811,3.8837,3.8902,3.893,3.9006,3.8973,3.9,3.9056,3.9087,3.9162,3.9078,3.9168,3.9171,3.9149,3.9305,3.9322,3.9441,3.9257,3.926,3.9262,0,3.8484,3.8549,3.8694,3.8755,3.8787,3.8855,3.8927,3.8991,3.905,3.9064,3.9114,3.9115,3.9202,3.915,3.9268,3.9211,3.9249,3.9269,3.9274,3.9281,3.9221,3.9312,3.948,3.9497,3.9289,3.9287,3.9285,0,3.8579,3.8704,3.8805,3.8838,3.8913,3.896,3.8993,3.9048,3.9094,3.9157,3.9186,3.9258,3.9297,3.9352,3.9371,3.9332,3.9488,3.9438,3.9499,3.9499,3.953,3.9528,3.9703,3.9561,3.956,3.956,3.956,0,3.8724,3.8811,3.8848,3.8911,3.9008,3.9026,3.9121,3.9152,3.9201,3.9267,3.9264,3.9326,3.9349,3.9414,3.943,3.9524,3.9542,3.9554,3.9557,3.9553,3.9551,3.9575,3.9566,3.9565,3.9564,3.9563,3.9562,0,3.8845,3.8874,3.8983,3.9045,3.9062,3.9131,3.9183,3.9241,3.9266,3.935,3.9371,3.9409,3.9485,3.951,3.9603,3.9613,3.9721,3.9718,3.9701,3.9701,3.9759,3.9752,3.9955,3.998,3.9824,3.9826,3.9827,0,3.8934,3.9001,3.9069,3.9114,3.9149,3.9221,3.9267,3.9287,3.9334,3.9404,3.9454,3.953,3.9591,3.9713,3.9748,3.9818,3.9814,3.988,3.9824,3.9817,3.981,3.9805,3.981,3.989,3.9891,3.9893,3.9894,0,3.9087,3.9097,3.9164,3.9236,3.9291,3.9348,3.9403,3.9439,3.9467,3.952,3.9598,3.9646,3.9739,3.9813,3.9884,3.9916,3.9909,3.9912,3.9929,3.9924,3.9909,3.9914,3.9726,3.9906,3.9905,3.9904,3.9903,3.9903,3.9192,3.925,3.9306,3.938,3.9424,3.9475,3.9532,3.9564,3.9629,3.9707,3.9715,3.9798,3.9852,3.9946,3.9982,4.0046,4.0027,4.0053,4.0059,4.0064,4.0066,3.9902,4.0059,4.0059,4.0059,4.0058,4.0058,0,3.9342,3.9377,3.9445,3.9522,3.9579,3.9569,3.9629,3.9676,3.975,3.9802,3.9862,3.995,4.0021,4.0061,4.0132,4.0175,4.0172,4.0192,4.0187,4.0194,4.0081,4.0058,4.0192,4.0192,4.0192,4.0192,4.0192,4.0192,3.9426,3.9522,3.9539,3.9656,3.9691,3.9772,3.9807,3.9853,3.9894,3.9992,4.0051,4.0077,4.0123,4.0197,4.0261,4.027,4.0295,4.0316,4.0323,4.0216,4.0202,4.0189,4.0167,4.0322,4.0322,4.043,4.0431,4.0431]},{"header":{"parameterUnit":"m.s-1","parameterCategory":1,"la1":30.2991,"la2":30.254,"lo1":-89.0895,"lo2":-89.0444,"dy":0.0017,"dx":0.0017,"nx":28,"ny":28,"refTime":"2025-04-13T21:00:00:Z","depth":0,"parameterNumber":3,"parameterNumberName":"V-component_of_WINDS"},"data":[0,0,0,0,0,0,0,0,0,0,0,0,0,0,0,0,0,0,0,0,0,0,0,0,0,0,0,0,0,0,0,0,0,0,0,0,0,0,0,0,0,0,0,0,0,0,0,0,0,0,0,0,0,0,0,0,0,0,4.1195,4.1196,0,4.1293,4.1294,4.1295,4.1262,4.126,4.1258,4.1256,4.1351,4.1355,4.136,0,0,0,0,0,0,0,0,0,0,0,0,0,4.0971,4.0976,4.1194,4.1196,4.1197,4.1292,4.1294,4.1295,4.1262,4.126,4.1257,4.1255,4.1349,4.1355,4.136,0,0,0,0,0,0,0,0,0,0,0,0,0,4.1069,4.0977,4.1194,4.1192,4.1193,4.1292,4.1294,4.1295,4.1263,4.126,4.1257,4.1254,4.1348,4.1354,4.1361,4.1466,0,0,4.1381,4.1384,0,0,0,0,0,0,0,0,4.1063,4.1077,4.1191,4.1193,4.1194,4.1262,4.125,4.1352,4.1264,4.1236,4.1256,4.1252,4.1323,4.1332,4.1357,4.147,4.1475,4.1382,4.1386,4.1389,4.1391,0,0,0,0,0,0,0,4.1056,4.1072,4.1233,4.1193,4.1194,4.1184,4.1194,4.1269,4.1296,4.1238,4.1236,4.1249,4.1323,4.1351,4.1359,4.1476,4.1382,4.1388,4.1392,4.1395,4.1677,4.168,0,0,0,0,0,0,4.105,4.1067,4.123,4.1236,4.1119,4.1191,4.1202,4.1243,4.1295,4.13,4.1251,4.1247,4.1341,4.1351,4.1362,4.1487,4.1389,4.1395,4.1399,4.1673,4.1678,4.1681,0,0,0,0,0,0,4.1045,4.1065,4.1226,4.1151,4.1171,4.1198,4.1244,4.1247,4.1274,4.1305,4.1309,4.1275,4.1339,4.1353,4.144,4.149,4.1398,4.1405,4.1669,4.1675,4.168,4.1739,0,0,0,0,0,0,4.1039,4.1063,4.1106,4.1152,4.1175,4.1305,4.1247,4.1251,4.1287,4.1282,4.1328,4.1333,4.1337,4.143,4.1447,4.1498,4.141,4.1665,4.1672,4.1678,4.1733,4.1746,4.1757,0,0,0,0,0,4.1031,4.1118,4.1108,4.1128,4.1229,4.1308,4.132,4.1325,4.1291,4.1332,4.1351,4.1331,4.1482,4.144,4.1458,4.1512,4.1662,4.167,4.1677,4.1727,4.1743,4.1756,0,0,0,0,0,0,4.1075,4.1124,4.1114,4.1219,4.1259,4.1302,4.1355,4.1342,4.1392,4.1385,4.1387,4.1398,4.1487,4.1508,4.146,4.1614,4.1566,4.1578,4.1598,4.1613,4.1625,4.1618,4.1415,0,0,0,0,0,4.1097,4.116,4.1198,4.1287,4.1308,4.1328,4.1362,4.1362,4.1404,4.1421,4.1447,4.1486,4.1542,4.1579,4.1632,4.1735,4.1743,4.1781,4.1793,4.1802,4.1812,4.1866,4.1882,4.1707,4.1707,4.1707,0,0,4.1143,4.1178,4.1217,4.1296,4.1328,4.139,4.1343,4.1411,4.1456,4.143,4.1515,4.1535,4.1578,4.1674,4.1717,4.1694,4.1863,4.1812,4.182,4.1825,4.1876,4.1892,4.1907,4.1712,4.1711,4.171,0,0,4.1259,4.1292,4.1369,4.1401,4.145,4.1462,4.148,4.1525,4.1538,4.1622,4.1604,4.1656,4.1753,4.1784,4.1813,4.1937,4.192,4.1954,4.2016,4.2069,4.2082,4.2095,4.2137,4.2153,4.1964,4.1964,4.1964,0,4.1309,4.1404,4.1409,4.1479,4.1513,4.1494,4.1569,4.16,4.1663,4.1686,4.1659,4.1779,4.1807,4.1908,4.1938,4.1962,4.1981,4.1949,4.208,4.2093,4.2104,4.2145,4.2161,4.1968,4.1967,4.1967,4.1967,0,4.1463,4.1529,4.1584,4.1647,4.1687,4.1759,4.1772,4.1812,4.1808,4.1822,4.1906,4.1939,4.1998,4.2022,4.2018,4.2122,4.2105,4.208,4.2031,4.2125,4.2163,4.2178,4.1973,4.1972,4.1971,4.197,0,0,4.161,4.1673,4.1694,4.1721,4.1772,4.1821,4.1891,4.195,4.1983,4.2026,4.2083,4.2164,4.214,4.2172,4.2171,4.2217,4.2311,4.2185,4.2186,4.2206,4.2424,4.2443,4.2461,4.2299,4.2302,4.2305,4.242,0,4.1729,4.1854,4.1859,4.1972,4.2031,4.2012,4.2072,4.2109,4.2123,4.2173,4.2187,4.2245,4.221,4.2229,4.2273,4.229,4.2354,4.2282,4.235,4.2352,4.2339,4.2481,4.2502,4.2609,4.2435,4.2437,4.2439,0,4.1885,4.1934,4.2053,4.2094,4.2119,4.2173,4.2226,4.2275,4.2314,4.2321,4.2356,4.2348,4.2416,4.2365,4.2457,4.2408,4.2435,4.2448,4.2452,4.2458,4.2401,4.249,4.2643,4.2659,4.2463,4.2461,4.2459,0,4.1978,4.2074,4.2157,4.2181,4.2231,4.2269,4.2291,4.2328,4.2362,4.2407,4.2428,4.248,4.2508,4.2547,4.2552,4.2515,4.2644,4.2594,4.2649,4.2649,4.2677,4.2675,4.2836,4.2697,4.2696,4.2696,4.2696,0,4.211,4.2183,4.22,4.2251,4.2331,4.2335,4.2413,4.2432,4.2464,4.2516,4.2502,4.2551,4.2555,4.2604,4.2607,4.2682,4.2695,4.27,4.27,4.2702,4.2701,4.272,4.2712,4.27,4.2699,4.2698,4.2698,0,4.2229,4.2243,4.2332,4.2372,4.2383,4.2441,4.2473,4.252,4.2532,4.2598,4.2614,4.2632,4.2689,4.2698,4.2764,4.2766,4.2855,4.2848,4.2843,4.2841,4.2896,4.289,4.3074,4.3097,4.2943,4.2944,4.2946,0,4.2312,4.2368,4.2413,4.2448,4.2473,4.2529,4.2563,4.2567,4.2604,4.2651,4.2692,4.2748,4.2793,4.2884,4.2902,4.2951,4.2944,4.3005,4.2952,4.295,4.2944,4.294,4.2945,4.3016,4.3017,4.3019,4.302,0,4.2457,4.2461,4.2513,4.2566,4.2608,4.265,4.269,4.2718,4.2727,4.2767,4.2826,4.2861,4.2929,4.2983,4.3032,4.3052,4.3037,4.3036,4.3052,4.3053,4.3047,4.305,4.287,4.3032,4.3031,4.303,4.3029,4.3029,4.256,4.2608,4.2647,4.2704,4.2734,4.2771,4.2817,4.2834,4.2884,4.2941,4.2939,4.3003,4.3038,4.3102,4.3125,4.3173,4.3153,4.3175,4.3181,4.3186,4.3191,4.304,4.3182,4.3182,4.3181,4.3181,4.3181,0,4.2703,4.2727,4.2779,4.2835,4.2879,4.2863,4.2904,4.2942,4.2999,4.3033,4.3078,4.3144,4.3196,4.3217,4.3267,4.3302,4.3296,4.3314,4.3312,4.3316,4.3207,4.3188,4.3318,4.3318,4.3318,4.3318,4.3318,4.3318,4.2783,4.2862,4.287,4.2963,4.2986,4.305,4.3075,4.3108,4.3135,4.321,4.3254,4.3268,4.3296,4.3348,4.3394,4.3398,4.3417,4.3439,4.344,4.3338,4.3324,4.3311,4.3293,4.3443,4.3443,4.3545,4.3546,4.3547]}]]